Home   Weather   Sitka   Past weeks

Flag for USA Past Weather in Sitka, Alaska, USA — Yesterday and Last 2 Weeks

Now
42 °F

Overcast.


Feels Like: 40 °F
Forecast: 42 / 54 °F
Wind: 3 mph from East

Location: Sitka Airport

Current Time: Apr 25, 2017 at 4:44:56 am

Latest Report: Apr 25, 2017 at 3:53 am


Visibility: 10 mi

Pressure: 29.78 "Hg

Humidity: 89%

Dew Point: 39 °F

Location of SitkaLocation

Past Weather in Sitka — Graph

°F

Sitka Temperature Yesterday

Maximum temperature yesterday: 50 °F (at 12:06 pm)
Minimum temperature yesterday: 43 °F (at 4:53 am)
Average temperature yesterday: 46 °F

High & Low Weather Summary for the Past Weeks

 TemperatureHumidityPressure
High62 °F (Apr 22, 4:53 pm)97% (Apr 17, 4:53 am)30.26 "Hg (Apr 17, 4:53 am)
Low35 °F (Apr 17, 5:53 am)23% (Apr 13, 4:53 pm)29.66 "Hg (Apr 18, 9:53 am)
Average48 °F71%29.92 "Hg
* Reported Apr 10 2:53 am — Apr 25 2:53 am, Sitka, Weather by CustomWeather, © 2017

Note: Actual official high and low records may vary slightly from our data, if they occured in-between our weather recording intervals... More about our weather records

Advertising

Sitka Weather History for the Previous 24 Hours

Scroll right to see more
 ConditionsComfort  
Time TempWeatherWind HumidityBarometerVisibility
2:53 am
Tue, Apr 25
43 °FOvercast.5 mph89%29.78 "Hg10 mi
1:53 am43 °FOvercast.3 mph89%29.79 "Hg10 mi
12:53 am44 °FOvercast.3 mph85%29.80 "Hg10 mi
11:53 pm
Mon, Apr 24
45 °FOvercast.No wind80%29.81 "Hg10 mi
10:53 pm45 °FOvercast.3 mph82%29.81 "Hg10 mi
9:53 pm45 °FOvercast.3 mph82%29.81 "Hg10 mi
8:53 pm45 °FOvercast.No wind80%29.81 "Hg10 mi
7:53 pm46 °FPartly sunny.5 mph73%29.81 "Hg10 mi
6:53 pm45 °FOvercast.6 mph80%29.83 "Hg10 mi
6:09 pm45 °FLight rain. More clouds than sun.12 mph82%29.83 "Hg10 mi
5:53 pm45 °FLight rain. Mostly cloudy.18 mph86%29.83 "Hg7 mi
5:01 pm45 °FMostly cloudy.18 mph90%29.83 "Hg7 mi
3:53 pm47 °FBroken clouds.23 mph90%29.81 "Hg7 mi
2:53 pm48 °FMostly cloudy.23 mph86%29.80 "Hg10 mi
1:53 pm49 °FMostly cloudy.7 mph84%29.80 "Hg10 mi
12:53 pm48 °FOvercast.8 mph89%29.80 "Hg10 mi
12:06 pm50 °FOvercast.3 mph83%29.79 "Hg10 mi
10:53 am48 °FMostly cloudy.7 mph86%29.78 "Hg10 mi
10:36 am48 °FMore clouds than sun.7 mph86%29.78 "Hg10 mi
9:53 am48 °FMostly cloudy.3 mph86%29.78 "Hg10 mi
9:35 am49 °FMore clouds than sun.5 mph84%29.77 "Hg10 mi
8:53 am49 °FMostly cloudy.3 mph84%29.77 "Hg10 mi
7:53 am48 °FOvercast.No wind83%29.77 "Hg10 mi
6:53 am44 °FScattered clouds.5 mph93%29.77 "Hg10 mi
5:53 am44 °FScattered clouds.No wind93%29.75 "Hg10 mi
4:53 am43 °FPassing clouds.No wind93%29.75 "Hg10 mi
Weather by CustomWeather, © 2017

See weather overviewHow to use our weather pages